[[{"header":{"parameterUnit":"m.s-1","parameterCategory":1,"la1":30.2992,"la2":30.254,"lo1":-89.0895,"lo2":-89.0443,"dy":0.0025,"dx":0.0025,"nx":19,"ny":19,"refTime":"2026-04-14T21:00:00:Z","depth":0,"parameterNumber":2,"parameterNumberName":"U-component_of_WINDS"},"data":[0,0,0,-2.3242,-2.3242,-2.3253,-2.3252,-2.3274,-2.3275,0,0,0,0,0,0,0,0,0,0,0,-2.3244,-2.3244,-2.3242,-2.3242,-2.3253,-2.3252,-2.3274,-2.3275,0,0,0,0,0,0,0,0,0,0,0,-2.3244,-2.3244,-2.3244,-2.3242,-2.3253,-2.3252,-2.3274,-2.3264,0,0,0,0,0,0,0,0,0,0,-2.3252,-2.3258,-2.3244,-2.3244,-2.3242,-2.3253,-2.3252,-2.3263,-2.3264,-2.3274,0,-2.3283,0,-2.3279,-2.3277,-2.3277,0,0,0,-2.3239,-2.3257,-2.3256,-2.3244,-2.3243,-2.3253,-2.3247,-2.3264,-2.3265,-2.3275,-2.3283,-2.3284,-2.328,-2.3277,-2.3277,-2.3343,-2.3343,0,0,-2.3238,-2.3248,-2.3255,-2.3257,-2.3256,-2.3247,-2.3247,-2.3264,-2.3273,-2.3283,-2.3284,-2.328,-2.3277,-2.3277,-2.3342,-2.3343,0,0,0,-2.3239,-2.3248,-2.3246,-2.3256,-2.3258,-2.3247,-2.3248,-2.3273,-2.3271,-2.3284,-2.328,-2.3277,-2.3278,-2.3342,-2.3343,-2.3376,0,0,0,-2.3238,-2.3248,-2.3246,-2.3252,-2.3257,-2.3265,-2.3256,-2.327,-2.3271,-2.328,-2.3277,-2.3278,-2.3341,-2.3342,-2.3374,-2.339,0,0,0,-2.3241,-2.3249,-2.3252,-2.3253,-2.3257,-2.3265,-2.3264,-2.327,-2.3269,-2.3277,-2.3278,-2.3341,-2.3342,-2.3372,-2.3387,-2.341,0,0,0,-2.3248,-2.3281,-2.3253,-2.3289,-2.3257,-2.3285,-2.3264,-2.3284,-2.3294,-2.3277,-2.3341,-2.3343,-2.3371,-2.3385,-2.3408,-2.3431,-2.3442,0,0,-2.3296,-2.3287,-2.3308,-2.3283,-2.3318,-2.3283,-2.3324,-2.3324,-2.3315,-2.3334,-2.3336,-2.3375,-2.3387,-2.341,-2.3499,-2.3508,0,0,0,-2.3326,-2.3341,-2.3349,-2.3359,-2.336,-2.3363,-2.3356,-2.3356,-2.3372,-2.3327,-2.3389,-2.3396,-2.3409,-2.342,-2.3427,-2.3438,-2.3348,-2.3348,-2.3348,-2.3408,-2.3396,-2.3429,-2.3419,-2.343,-2.3423,-2.3431,-2.343,-2.3414,-2.3429,-2.3434,-2.349,-2.3503,-2.3508,-2.352,-2.3446,-2.3446,-2.3446,-2.3446,-2.3477,-2.3496,-2.3476,-2.35,-2.3488,-2.3509,-2.3504,-2.3492,-2.351,-2.3485,-2.3496,-2.3469,-2.3518,-2.3527,-2.3449,-2.3448,-2.3448,-2.3448,-2.3448,-2.3529,-2.3536,-2.3536,-2.3551,-2.3564,-2.3553,-2.3572,-2.3559,-2.3548,-2.3559,-2.3564,-2.3563,-2.3561,-2.3562,-2.3562,-2.3563,-2.3563,-2.3563,-2.3563,-2.3582,-2.3581,-2.3598,-2.3603,-2.3609,-2.3616,-2.361,-2.3616,-2.3619,-2.3609,-2.3609,-2.3592,-2.3525,-2.3509,-2.3566,-2.3565,-2.3565,-2.3565,-2.3565,-2.3655,-2.3637,-2.3663,-2.3669,-2.3675,-2.369,-2.3675,-2.3687,-2.369,-2.37,-2.3681,-2.3634,-2.3625,-2.3619,-2.3605,-2.3684,-2.3684,-2.3684,-2.3684,-2.3699,-2.3693,-2.3718,-2.3728,-2.3738,-2.3727,-2.3758,-2.3755,-2.3748,-2.375,-2.3737,-2.3718,-2.3712,-2.3706,-2.3698,-2.3685,-2.3782,-2.3782,-2.3783,-2.3743,-2.3738,-2.3766,-2.376,-2.3764,-2.3768,-2.3797,-2.3811,-2.38,-2.3786,-2.3751,-2.3747,-2.3715,-2.3706,-2.369,-2.3678,-2.3654,0,0]},{"header":{"parameterUnit":"m.s-1","parameterCategory":1,"la1":30.2992,"la2":30.254,"lo1":-89.0895,"lo2":-89.0443,"dy":0.0025,"dx":0.0025,"nx":19,"ny":19,"refTime":"2026-04-14T21:00:00:Z","depth":0,"parameterNumber":3,"parameterNumberName":"V-component_of_WINDS"},"data":[0,0,0,4.3126,4.3127,4.3171,4.3171,4.3222,4.3222,0,0,0,0,0,0,0,0,0,0,0,4.3111,4.3112,4.3126,4.3127,4.3171,4.3171,4.3221,4.3222,0,0,0,0,0,0,0,0,0,0,0,4.3111,4.3112,4.3112,4.3127,4.317,4.3171,4.3221,4.319,0,0,0,0,0,0,0,0,0,0,4.3149,4.3133,4.3112,4.3112,4.3128,4.317,4.3171,4.3189,4.3192,4.32,0,4.3208,0,4.3216,4.3225,4.3225,0,0,0,4.3128,4.3131,4.3144,4.3112,4.3128,4.317,4.3151,4.319,4.3194,4.3205,4.3209,4.3211,4.3217,4.3225,4.3226,4.3274,4.3274,0,0,4.3126,4.3118,4.3142,4.3147,4.3141,4.315,4.3153,4.3193,4.3196,4.3209,4.3212,4.3218,4.3226,4.3226,4.3273,4.3274,0,0,0,4.3118,4.3116,4.3129,4.3144,4.3153,4.3151,4.3154,4.3194,4.3199,4.3213,4.3218,4.3226,4.3227,4.3273,4.3274,4.3275,0,0,0,4.3117,4.3112,4.3128,4.3123,4.3152,4.3174,4.3155,4.3197,4.3201,4.3218,4.3226,4.3227,4.3273,4.3273,4.3275,4.3277,0,0,0,4.3109,4.3111,4.3117,4.3123,4.3141,4.3174,4.3181,4.3198,4.3205,4.3225,4.3227,4.3273,4.3273,4.3275,4.3277,4.3288,0,0,0,4.3098,4.3117,4.3117,4.3139,4.3141,4.3175,4.3181,4.3206,4.3224,4.3226,4.3273,4.3274,4.3274,4.3276,4.3287,4.3296,4.3299,0,0,4.3117,4.3118,4.3132,4.3134,4.3166,4.3169,4.3202,4.3224,4.3233,4.3259,4.3261,4.3275,4.3276,4.3288,4.3319,4.3321,0,0,0,4.3136,4.3146,4.3156,4.3173,4.3193,4.3209,4.3228,4.3237,4.326,4.3245,4.3283,4.3284,4.3291,4.3295,4.3297,4.3303,4.3275,4.3275,4.3275,4.3149,4.3161,4.3185,4.3202,4.3219,4.324,4.3254,4.3269,4.3274,4.3283,4.3291,4.3308,4.3313,4.3315,4.3321,4.3296,4.3296,4.3296,4.3296,4.3177,4.3193,4.3202,4.3228,4.324,4.3262,4.3283,4.3286,4.3307,4.3303,4.331,4.3304,4.3317,4.3323,4.3297,4.3297,4.3297,4.3297,4.3297,4.3187,4.3197,4.3209,4.3237,4.3256,4.3273,4.3294,4.3303,4.3312,4.3319,4.3328,4.3328,4.3329,4.3323,4.3323,4.3323,4.3323,4.3323,4.3323,4.3193,4.3206,4.3223,4.3247,4.326,4.3279,4.3301,4.3314,4.333,4.3335,4.3336,4.334,4.3316,4.331,4.3324,4.3324,4.3324,4.3324,4.3324,4.3216,4.3213,4.324,4.3253,4.3282,4.3301,4.3314,4.334,4.3352,4.3362,4.3366,4.3347,4.3349,4.3347,4.3342,4.3363,4.3363,4.3363,4.3363,4.3225,4.3227,4.3257,4.3279,4.33,4.3315,4.3344,4.3362,4.3379,4.3387,4.3386,4.338,4.3378,4.3381,4.3379,4.3374,4.3403,4.3403,4.3403,4.324,4.3245,4.3269,4.3287,4.3311,4.3331,4.3358,4.3382,4.34,4.3405,4.3394,4.3392,4.3383,4.3379,4.3382,4.3379,4.337,0,0]}]]